CW0775 Weather Reports


time (UTC)temp
F
wind
direction
speed
knots
gust
knots
rain 1hr
in
rain 24hr
in
rain mn
in
humidity
%
barometer
mb
20260510181005 67 260 1.7 4.3 0.00 0.00 0.00 61 1005.8
20260510180504 67 279 1.7 4.3 0.00 0.00 0.00 60 1005.8
20260510180005 68 284 2.6 12.2 0.00 0.00 0.00 61 1005.4
20260510174504 68 315 4.3 12.2 0.00 0.00 0.00 61 1005.2
20260510173505 69 357 6.1 11.3 0.00 0.00 0.00 60 1005.1
20260510173004 69 300 5.2 8.7 0.00 0.00 0.00 60 1005.4
20260510171505 70 321 1.7 6.1 0.00 0.00 0.00 58 1005.4
20260510171005 70 316 2.6 6.1 0.00 0.00 0.00 57 1005.8
20260510164505 71 311 0.9 7.0 0.00 0.00 0.00 57 1005.8
20260510164005 71 312 1.7 4.3 0.00 0.00 0.00 57 1005.8
20260510163505 72 329 0.9 6.1 0.00 0.00 0.00 56 1006.1
20260510163004 72 306 1.7 7.0 0.00 0.00 0.00 56 1006.1
20260510161504 72 334 3.5 8.7 0.00 0.00 0.00 55 1006.1
20260510161005 72 48 5.2 8.7 0.00 0.00 0.00 54 1006.1
20260510160504 73 38 0.9 6.1 0.00 0.00 0.00 54 1006.1
20260510160004 73 37 2.6 13.0 0.00 0.00 0.00 52 1006.4
20260510154504 73 24 2.6 6.1 0.00 0.00 0.00 52 1006.2
20260510154004 73 140 2.6 8.7 0.00 0.00 0.00 55 1006.4
20260510153005 73 114 5.2 13.0 0.00 0.00 0.00 49 1006.5
20260510151505 74 76 5.2 8.7 0.00 0.00 0.00 50 1006.8
20260510151004 74 137 5.2 7.0 0.00 0.00 0.00 48 1006.8
20260510150504 73 81 4.3 7.0 0.00 0.00 0.00 48 1006.8
20260510150004 73 102 5.2 14.8 0.00 0.00 0.00 49 1006.8
20260510144504 74 106 2.6 6.1 0.00 0.00 0.00 49 1007.5
20260510144004 75 24 1.7 13.0 0.00 0.00 0.00 47 1007.5
20260510143505 76 125 4.3 13.0 0.00 0.00 0.00 47 1007.5
20260510143005 75 101 5.2 8.7 0.00 0.00 0.00 47 1007.5
20260510141505 74 153 2.6 8.7 0.00 0.00 0.00 49 1007.9
20260510141004 73 174 7.0 8.7 0.00 0.00 0.00 49 1008.1
20260510140004 74 118 5.2 8.7 0.00 0.00 0.00 47 1008.1
20260510134004 74 118 2.6 8.7 0.00 0.00 0.00 50 1008.4
20260510133505 74 151 2.6 8.7 0.00 0.00 0.00 48 1008.1
20260510133005 74 0 4.3 12.2 0.00 0.00 0.00 47 1008.5
20260510131004 74 59 8.7 12.2 0.00 0.00 0.00 51 1008.5
20260510124505 73 96 4.3 12.2 0.00 0.00 0.00 50 1008.8
20260510123504 74 127 4.3 11.3 0.00 0.00 0.00 49 1009.1
20260510123004 73 159 6.1 14.8 0.00 0.00 0.00 52 1008.9
20260510121504 73 112 4.3 13.0 0.00 0.00 0.00 53 1009.1
20260510121004 73 140 7.0 13.0 0.00 0.00 0.00 51 1009.5
20260510120504 73 262 3.5 8.7 0.00 0.00 0.00 53 1009.1
20260510120004 72 241 2.6 13.0 0.00 0.00 0.00 54 1009.5
20260510114504 71 123 5.2 8.7 0.00 0.00 0.00 55 1009.7
20260510114004 71 23 4.3 12.2 0.00 0.00 0.00 55 1009.5
20260510113504 71 144 2.6 6.1 0.00 0.00 0.00 56 1009.5
20260510113005 71 81 4.3 11.3 0.00 0.00 0.00 55 1009.6
20260510111505 71 83 3.5 13.0 0.00 0.00 0.00 55 1010.0
20260510111004 71 86 5.2 11.3 0.00 0.00 0.00 54 1010.0
20260510110505 70 92 6.1 12.2 0.00 0.00 0.00 57 1010.1
20260510110004 70 115 3.5 13.0 0.00 0.00 0.00 57 1010.1
20260510104504 70 110 2.6 7.0 0.00 0.00 0.00 56 1010.5
20260510104004 69 90 4.3 11.3 0.00 0.00 0.00 58 1010.5
20260510103504 69 51 5.2 13.0 0.00 0.00 0.00 60 1010.2
20260510103004 69 70 6.1 13.0 0.00 0.00 0.00 60 1010.5
20260510101505 69 316 7.8 12.2 0.00 0.00 0.00 60 1010.5
20260510101004 68 120 7.8 12.2 0.00 0.00 0.00 60 1010.6
20260510094504 68 4 2.6 8.7 0.00 0.00 0.00 62 1010.8
20260510094004 68 112 4.3 7.0 0.00 0.00 0.00 62 1010.8
20260510093005 67 117 5.2 12.2 0.00 0.00 0.00 65 1010.8
20260510091506 66 344 3.5 7.0 0.00 0.00 0.00 67 1010.9
20260510091006 66 1 2.6 8.7 0.00 0.00 0.00 68 1011.2
20260510090005 66 92 2.6 8.7 0.00 0.00 0.00 69 1011.2
20260510084506 65 95 4.3 8.7 0.00 0.00 0.00 68 1011.5
20260510083506 63 98 5.2 8.7 0.00 0.00 0.00 70 1011.5
20260510081506 63 94 2.6 12.2 0.00 0.00 0.00 68 1011.7
20260510080505 62 83 5.2 11.3 0.00 0.00 0.00 71 1011.5
20260510080005 63 114 5.2 8.7 0.00 0.00 0.00 70 1011.7
20260510074505 62 109 3.5 8.7 0.00 0.00 0.00 71 1011.7
20260510074006 62 50 4.3 8.7 0.00 0.00 0.00 73 1012.2
20260510073506 61 140 5.2 11.3 0.00 0.00 0.00 74 1012.2
20260510073005 60 91 4.3 8.7 0.00 0.00 0.00 75 1011.9
20260510071505 59 163 4.3 7.0 0.00 0.00 0.00 76 1012.0
20260510071006 59 126 3.5 4.3 0.00 0.00 0.00 78 1012.2
20260510070505 58 96 1.7 6.1 0.00 0.00 0.00 79 1011.9
20260510070006 58 153 1.7 4.3 0.00 0.00 0.00 80 1012.0
20260510064505 58 186 0.0 1.7 0.00 0.00 0.00 80 1011.9
20260510063505 58 94 0.0 2.6 0.00 0.00 0.00 83 1012.2
20260510063007 57 136 0.9 2.6 0.00 0.00 0.00 82 1011.9
20260510061006 56 294 0.0 0.0 0.00 0.00 0.00 81 1012.0
20260510060505 55 294 0.0 0.0 0.00 0.00 0.00 82 1012.2
20260510060005 54 294 0.0 0.0 0.00 0.00 0.00 85 1012.2
20260510054005 51 291 0.0 0.0 0.00 0.00 0.00 88 1012.2
20260510053506 50 291 0.0 0.0 0.00 0.00 0.00 90 1012.3
20260510053005 49 290 0.0 0.0 0.00 0.00 0.00 92 1012.5
20260510051506 47 290 0.0 0.0 0.00 0.00 0.00 95 1012.5
20260510051005 46 290 0.0 0.0 0.00 0.00 0.00 95 1012.2
20260510050505 46 290 0.0 0.0 0.00 0.00 0.00 95 1012.3
20260510050005 46 290 0.0 0.0 0.00 0.00 0.00 96 1012.3
20260510044505 45 290 0.0 0.0 0.00 0.00 0.00 96 1012.2
20260510044005 44 290 0.0 0.0 0.00 0.00 0.00 96 1012.5
20260510043506 44 290 0.0 0.0 0.00 0.00 0.00 96 1012.5
20260510043005 44 290 0.0 0.0 0.00 0.00 0.00 96 1012.5
20260510041506 44 290 0.0 0.0 0.00 0.00 0.00 96 1012.5
20260510041005 44 290 0.0 0.0 0.00 0.00 0.00 96 1012.5
20260510040506 44 290 0.0 0.0 0.00 0.00 0.00 96 1012.3
20260510034005 44 290 0.0 0.0 0.00 0.00 0.00 96 1012.9
20260510033506 44 290 0.0 0.0 0.00 0.00 0.00 96 1012.9
20260510033005 44 290 0.0 0.0 0.00 0.00 0.00 96 1012.5
20260510031505 44 290 0.0 0.0 0.00 0.00 0.00 96 1012.9
20260510031005 44 290 0.0 0.0 0.00 0.00 0.00 95 1012.9
20260510030505 44 290 0.0 0.0 0.00 0.00 0.00 95 1012.9
20260510030006 44 290 0.0 0.0 0.00 0.00 0.00 95 1013.1
20260510024505 44 290 0.0 0.0 0.00 0.00 0.00 95 1013.2
20260510024005 44 290 0.0 0.0 0.00 0.00 0.00 95 1013.1
20260510023506 44 290 0.0 0.0 0.00 0.00 0.00 95 1013.2
20260510023005 44 290 0.0 0.0 0.00 0.00 0.00 95 1012.9
20260510021005 45 290 0.0 0.0 0.00 0.00 0.00 94 1013.2
20260510020005 45 290 0.0 0.0 0.00 0.00 0.00 94 1013.5
20260510014505 45 290 0.0 0.0 0.00 0.00 0.00 94 1013.5
20260510014005 45 290 0.0 0.0 0.00 0.00 0.00 94 1013.5
20260510013505 45 290 0.0 0.0 0.00 0.00 0.00 94 1013.3
20260510013005 45 290 0.0 0.0 0.00 0.00 0.00 94 1013.2
20260510011505 45 290 0.0 0.0 0.00 0.00 0.00 94 1013.2
20260510011005 45 290 0.0 0.0 0.00 0.00 0.00 93 1013.5
20260510010504 46 290 0.0 0.0 0.00 0.00 0.00 93 1013.2
20260510010005 46 290 0.0 0.0 0.00 0.00 0.00 93 1013.5
20260510004504 46 290 0.0 0.0 0.00 0.00 0.00 92 1013.5
20260510004004 46 290 0.0 0.0 0.00 0.00 0.00 92 1013.5
20260510001505 46 290 0.0 0.0 0.00 0.00 0.00 92 1013.5
20260510000505 46 290 0.0 0.0 0.00 0.00 0.00 91 1013.8
20260510000004 46 290 0.0 0.0 0.00 0.00 0.00 91 1013.9
20260509234004 47 290 0.0 0.0 0.00 0.00 0.00 90 1013.9
20260509233505 47 290 0.0 0.0 0.00 0.00 0.00 90 1014.2
20260509233005 48 291 0.0 0.0 0.00 0.00 0.00 90 1014.2
20260509231505 48 293 0.0 0.0 0.00 0.00 0.00 89 1014.2
20260509231005 49 293 0.0 0.0 0.00 0.00 0.00 89 1014.2
20260509230505 48 294 0.0 0.0 0.00 0.00 0.00 88 1014.2
20260509224005 49 294 0.0 0.0 0.00 0.00 0.00 87 1014.2
20260509223505 50 294 0.0 0.0 0.00 0.00 0.00 87 1014.2
20260509223005 50 294 0.0 0.0 0.00 0.00 0.00 87 1014.2
20260509221506 51 297 0.0 0.0 0.00 0.00 0.00 85 1014.6
20260509221005 51 297 0.0 0.0 0.00 0.00 0.00 85 1014.5
20260509220504 52 297 0.0 0.0 0.00 0.00 0.00 84 1014.6
20260509214005 52 297 0.0 1.7 0.00 0.00 0.00 83 1014.6
20260509213506 52 297 0.9 1.7 0.00 0.00 0.00 84 1014.6
20260509213005 52 309 0.0 0.0 0.00 0.00 0.00 83 1014.6
20260509211505 53 317 0.0 0.0 0.00 0.00 0.00 82 1014.8
20260509211005 54 317 0.0 0.0 0.00 0.00 0.00 82 1014.8
20260509210505 54 317 0.0 0.0 0.00 0.00 0.00 81 1014.6
20260509203505 55 318 0.0 0.0 0.00 0.00 0.00 79 1014.8
20260509201506 56 318 0.0 0.0 0.00 0.00 0.00 76 1014.6
20260509200504 57 318 0.0 0.0 0.00 0.00 0.00 73 1014.9
20260509200005 58 318 0.0 0.0 0.00 0.00 0.00 72 1014.9
20260509194504 59 319 0.0 0.0 0.00 0.00 0.00 69 1014.6
20260509194005 60 319 0.0 0.0 0.00 0.00 0.00 68 1014.6
20260509193505 60 319 0.0 0.0 0.00 0.00 0.00 67 1014.6
20260509191505 61 316 0.0 0.0 0.00 0.00 0.00 65 1014.2
20260509191005 62 313 0.0 0.0 0.00 0.00 0.00 65 1014.2
20260509190505 62 315 0.9 1.7 0.00 0.00 0.00 65 1014.2
20260509190006 62 310 0.0 0.0 0.00 0.00 0.00 65 1014.2
20260509184504 63 309 0.0 1.7 0.00 0.00 0.00 64 1014.2
20260509184004 64 309 0.0 1.7 0.00 0.00 0.00 62 1014.2
20260509183505 64 309 0.0 0.0 0.00 0.00 0.00 60 1014.2
20260509183005 65 309 0.0 1.7 0.00 0.00 0.00 58 1014.0
20260509181505 66 333 0.9 2.6 0.00 0.00 0.00 55 1013.9